TimeEST,TemperatureF,Dew PointF,Humidity,Sea Level PressureIn,VisibilityMPH,Wind Direction,Wind SpeedMPH,Gust SpeedMPH,PrecipitationIn,Events,Conditions,WindDirDegrees,DateUTC
12:15 AM,35.6,6.8,30,30.04,10.0,SSW,10.4,-,N/A,,Clear,200,2014-01-31 05:15:00
12:35 AM,35.6,6.8,30,30.03,10.0,SSW,11.5,-,N/A,,Clear,200,2014-01-31 05:35:00
12:55 AM,35.6,6.8,30,30.03,10.0,SSW,9.2,-,N/A,,Clear,200,2014-01-31 05:55:00
1:15 AM,35.6,6.8,30,30.03,10.0,South,9.2,-,N/A,,Clear,190,2014-01-31 06:15:00
1:35 AM,35.6,6.8,30,30.04,10.0,SSW,9.2,-,N/A,,Clear,200,2014-01-31 06:35:00
1:55 AM,33.8,6.8,32,30.04,10.0,South,9.2,-,N/A,,Clear,190,2014-01-31 06:55:00
2:15 AM,33.8,6.8,32,30.03,10.0,South,6.9,-,N/A,,Clear,190,2014-01-31 07:15:00
2:35 AM,33.8,6.8,32,30.03,10.0,South,10.4,-,N/A,,Clear,180,2014-01-31 07:35:00
2:55 AM,33.8,8.6,35,30.04,10.0,South,6.9,-,N/A,,Clear,180,2014-01-31 07:55:00
3:15 AM,33.8,8.6,35,30.05,10.0,South,5.8,-,N/A,,Clear,180,2014-01-31 08:15:00
3:35 AM,33.8,8.6,35,30.04,10.0,SSE,6.9,-,N/A,,Clear,160,2014-01-31 08:35:00
3:55 AM,33.8,8.6,35,30.05,10.0,South,5.8,-,N/A,,Clear,180,2014-01-31 08:55:00
4:15 AM,33.8,8.6,35,30.05,10.0,South,8.1,-,N/A,,Clear,190,2014-01-31 09:15:00
4:35 AM,33.8,8.6,35,30.05,10.0,South,6.9,-,N/A,,Clear,180,2014-01-31 09:35:00
4:55 AM,33.8,8.6,35,30.05,10.0,South,6.9,-,N/A,,Clear,180,2014-01-31 09:55:00
5:15 AM,33.8,8.6,35,30.07,10.0,South,8.1,-,N/A,,Clear,190,2014-01-31 10:15:00
5:35 AM,32.0,6.8,35,30.07,10.0,South,5.8,-,N/A,,Clear,170,2014-01-31 10:35:00
5:55 AM,30.2,6.8,37,30.07,10.0,South,5.8,-,N/A,,Clear,180,2014-01-31 10:55:00
6:15 AM,30.2,6.8,37,30.08,10.0,South,5.8,-,N/A,,Clear,170,2014-01-31 11:15:00
6:35 AM,28.4,6.8,40,30.08,10.0,SSE,5.8,-,N/A,,Clear,160,2014-01-31 11:35:00
6:55 AM,28.4,6.8,40,30.08,10.0,SSE,4.6,-,N/A,,Clear,160,2014-01-31 11:55:00
7:15 AM,28.4,6.8,40,30.09,10.0,SSE,5.8,-,N/A,,Clear,160,2014-01-31 12:15:00
7:35 AM,28.4,8.6,43,30.09,10.0,SSE,5.8,-,N/A,,Clear,160,2014-01-31 12:35:00
7:55 AM,28.4,6.8,40,30.09,10.0,SSE,5.8,-,N/A,,Clear,160,2014-01-31 12:55:00
8:15 AM,30.2,6.8,37,30.10,10.0,South,5.8,-,N/A,,Clear,170,2014-01-31 13:15:00
8:35 AM,30.2,8.6,40,30.11,10.0,SSE,5.8,-,N/A,,Clear,160,2014-01-31 13:35:00
8:55 AM,32.0,8.6,38,30.11,10.0,SSE,5.8,-,N/A,,Clear,160,2014-01-31 13:55:00
9:15 AM,33.8,8.6,35,30.12,10.0,South,5.8,-,N/A,,Clear,180,2014-01-31 14:15:00
9:35 AM,33.8,8.6,35,30.12,10.0,South,5.8,-,N/A,,Clear,170,2014-01-31 14:35:00
9:55 AM,33.8,8.6,35,30.13,10.0,South,6.9,-,N/A,,Clear,180,2014-01-31 14:55:00
10:15 AM,37.4,8.6,30,30.14,10.0,South,9.2,-,N/A,,Clear,190,2014-01-31 15:15:00
10:35 AM,37.4,8.6,30,30.14,10.0,SSW,9.2,-,N/A,,Clear,210,2014-01-31 15:35:00
10:55 AM,39.2,10.4,31,30.14,10.0,SSW,9.2,-,N/A,,Clear,210,2014-01-31 15:55:00
11:15 AM,41.0,10.4,29,30.13,10.0,South,9.2,-,N/A,,Clear,190,2014-01-31 16:15:00
11:35 AM,41.0,10.4,29,30.13,10.0,South,9.2,-,N/A,,Partly Cloudy,190,2014-01-31 16:35:00
11:55 AM,39.2,10.4,31,30.13,10.0,South,10.4,-,N/A,,Partly Cloudy,180,2014-01-31 16:55:00
12:15 PM,41.0,10.4,29,30.12,10.0,South,12.7,-,N/A,,Clear,190,2014-01-31 17:15:00
12:35 PM,42.8,10.4,27,30.12,10.0,South,9.2,-,N/A,,Clear,180,2014-01-31 17:35:00
12:55 PM,42.8,10.4,27,30.10,10.0,SSW,9.2,-,N/A,,Clear,200,2014-01-31 17:55:00
1:15 PM,42.8,10.4,27,30.10,10.0,South,8.1,-,N/A,,Mostly Cloudy,170,2014-01-31 18:15:00
1:35 PM,42.8,12.2,29,30.09,10.0,South,4.6,-,N/A,,Partly Cloudy,190,2014-01-31 18:35:00
1:55 PM,44.6,12.2,27,30.09,10.0,SSE,5.8,-,N/A,,Clear,160,2014-01-31 18:55:00
2:15 PM,44.6,14.0,29,30.10,10.0,South,8.1,-,N/A,,Clear,190,2014-01-31 19:15:00
2:35 PM,44.6,12.2,27,30.09,10.0,South,5.8,-,N/A,,Clear,180,2014-01-31 19:35:00
2:55 PM,44.6,12.2,27,30.08,10.0,SE,5.8,-,N/A,,Clear,140,2014-01-31 19:55:00
3:15 PM,44.6,12.2,27,30.07,10.0,SE,8.1,-,N/A,,Scattered Clouds,140,2014-01-31 20:15:00
3:35 PM,42.8,12.2,29,30.07,10.0,SE,6.9,-,N/A,,Overcast,130,2014-01-31 20:35:00
3:55 PM,44.6,14.0,29,30.07,10.0,South,5.8,-,N/A,,Overcast,170,2014-01-31 20:55:00
4:15 PM,42.8,14.0,31,30.08,10.0,SE,4.6,-,N/A,,Overcast,140,2014-01-31 21:15:00
4:35 PM,42.8,15.8,34,30.07,10.0,SE,4.6,-,N/A,,Overcast,130,2014-01-31 21:35:00
4:55 PM,42.8,15.8,34,30.07,10.0,SE,5.8,-,N/A,,Overcast,130,2014-01-31 21:55:00
5:15 PM,42.8,15.8,34,30.06,10.0,SE,5.8,-,N/A,,Overcast,140,2014-01-31 22:15:00
5:35 PM,42.8,15.8,34,30.06,10.0,SSE,5.8,-,N/A,,Overcast,150,2014-01-31 22:35:00
5:55 PM,42.8,19.4,39,30.07,10.0,South,4.6,-,N/A,,Overcast,170,2014-01-31 22:55:00
6:15 PM,41.0,23.0,49,30.06,10.0,SE,8.1,-,N/A,,Overcast,130,2014-01-31 23:15:00
6:35 PM,39.2,26.6,61,30.06,10.0,SSE,9.2,-,N/A,,Overcast,160,2014-01-31 23:35:00
6:55 PM,39.2,28.4,65,30.07,10.0,SSE,12.7,-,N/A,,Overcast,150,2014-01-31 23:55:00
7:15 PM,39.2,28.4,65,30.08,10.0,South,9.2,-,N/A,,Overcast,170,2014-02-01 00:15:00
7:35 PM,37.4,28.4,70,30.09,10.0,SSE,8.1,-,N/A,,Overcast,150,2014-02-01 00:35:00
7:55 PM,37.4,30.2,75,30.08,9.0,SSE,9.2,-,N/A,,Overcast,160,2014-02-01 00:55:00
8:15 PM,35.6,32.0,87,30.08,5.0,SSE,4.6,-,N/A,,Overcast,160,2014-02-01 01:15:00
8:35 PM,35.6,32.0,87,30.08,5.0,SE,4.6,-,N/A,,Overcast,140,2014-02-01 01:35:00
8:55 PM,35.6,32.0,87,30.07,2.5,ESE,3.5,-,N/A,,Overcast,120,2014-02-01 01:55:00
9:15 PM,35.6,32.0,87,30.07,2.5,ESE,3.5,-,N/A,,Overcast,120,2014-02-01 02:15:00
9:35 PM,35.6,32.0,87,30.07,2.5,ESE,3.5,-,N/A,,Overcast,110,2014-02-01 02:35:00
9:55 PM,35.6,32.0,87,30.07,2.5,East,4.6,-,N/A,,Overcast,100,2014-02-01 02:55:00
10:15 PM,35.6,32.0,87,30.07,3.0,ESE,4.6,-,N/A,,Overcast,120,2014-02-01 03:15:00
10:35 PM,35.6,33.8,93,30.06,3.0,SE,4.6,-,N/A,,Overcast,140,2014-02-01 03:35:00
10:55 PM,35.6,33.8,93,30.05,3.0,ESE,4.6,-,N/A,,Mostly Cloudy,120,2014-02-01 03:55:00
11:15 PM,35.6,33.8,93,30.04,2.5,ESE,5.8,-,N/A,,Scattered Clouds,110,2014-02-01 04:15:00
11:35 PM,35.6,33.8,93,30.03,2.5,East,5.8,-,N/A,,Mostly Cloudy,90,2014-02-01 04:35:00
11:55 PM,35.6,33.8,93,30.03,3.0,ENE,4.6,-,N/A,,Overcast,60,2014-02-01 04:55:00